Regional Weather Roundup
Issued by NWS Bismarck, ND

Home | Current Version | Previous Version | Text Only | Print | Product List | Glossary On
Versions: 1 2 3 4 5 6 7 8 9 10 11 12 13 14 15 16 17 18 19 20 21 22 23 24 25 26 27 28 29 30 31 32 33 34 35 36 37 38 39 40 41 42 43 44 45 46 47 48 49 50
000
ASUS43 KBIS 040601
RWRBIS

NWR BROADCAST TEXT
NATIONAL WEATHER SERVICE BISMARCK ND
1200 AM CST WED MAR 04 2015

NOTE: "FAIR" INDICATES FEW OR NO CLOUDS BELOW 12,000 FEET WITH NO
SIGNIFICANT WEATHER AND/OR OBSTRUCTIONS TO VISIBILITY.


CITY           SKY/WX    TMP DP  RH WIND       PRES   REMARKS
WILLISTON      CLEAR     -2 -10  69 NW16      30.11R WCI -23
MINOT          LGT SNOW   1  -5  75 NW17      30.01R WCI -19
MINOT AFB      PTCLDY    -1  -8  71 NW16      30.01R WCI -21
BISMARCK       CLOUDY     2  -5  72 SW8       30.05S WCI -12
DICKINSON      PTCLDY     5  -3  69 NW21G28   29.98R WCI -16
GARRISON         N/A      2  -3  80 W12       30.01R WCI -15
HETTINGER ARPT CLEAR      4  -5  66 W13       30.00R WCI -13
JAMESTOWN      CLEAR     -2 -11  65 W6        30.02S WCI -14
CARRINGTON     FAIR      -2  -8  78 MISG      30.01F
CROSBY         FAIR      -4 -11  71 NW14      30.09R WCI -24
HAZEN          LGT SNOW   5   0  78 W7        30.04R WCI  -7
LINTON         FAIR      -2  -6  84 SW8       30.05F WCI -17
OAKES            N/A      0  -8  71 W12       30.07S WCI -18
WATFORD CITY   FAIR       0  -9  65 NW20G25   30.06R WCI -22
$$

CITY           SKY/WX    TMP DP  RH WIND       PRES   REMARKS
GRAND FORKS    CLEAR     -1  -9  68 W10       30.04R WCI -17
GRAND FORKS AF CLEAR     -1 -11  64 NW12      30.03R WCI -19
DEVILS LAKE    CLEAR     -2 -13  60 W14       29.99S WCI -21
FARGO          CLEAR      1  -8  66 W12       30.07S WCI -16
GWINNER        CLEAR      3  -6  66 NW9       30.08S WCI -11
$$

CITY           SKY/WX    TMP DP  RH WIND       PRES   REMARKS
ABERDEEN       CLEAR      1  -8  66 NW7       30.12S WCI -12
MOBRIDGE       CLEAR      0  -4  83 N3        30.04F
BUFFALO          N/A      4  -4  69 W15       29.93R WCI -14
RAPID CITY     CLEAR      4  -4  69 W3        30.06R
GLASGOW        PTCLDY     2  -5  72 N10       30.14R WCI -14
SIDNEY         CLEAR      3  -2  78 NW18      30.15R WCI -17
WOLF POINT     PTCLDY     3  -7  63 N8        30.17R WCI -10
MILES CITY     CLOUDY    12  -4  48 NW10      30.10R WCI  -1
BAKER          CLEAR      7  -4  60 W13       30.02R WCI  -9
$$

CITY           SKY/WX    TMP DP  RH WIND       PRES   REMARKS
BILLINGS       CLEAR     10  -4  53 SW15      30.09R WCI  -7
GREAT FALLS    CLOUDY    11   2  67 NW8       30.15R WCI  -1
$$




USA.gov is the U.S. government's official web portal to all federal, state and local government web resources and services.